Location: ??
(34.8797°N, 135.3670°E)
Time: 16:30:56
(UTC+00:00)

Daily predictions for brighter satellites

Satellite Brightness Start Highest point End
(mag) Time Altitude Azimuth Time Altitude Azimuth Time Altitude Azimuth
Cosmos 1943 Rocket 4.0 18:35:32 25° NE 18:36:17 26° ENE 18:40:47 10° ESE
NOSS 3-1 (A) 4.1 18:45:31 82° E 18:45:31 82° E 18:54:12 10° SSE
USA 267 3.7 18:42:44 10° ESE 18:49:02 55° NE 18:49:32 53° NNE
Cosmos 407 Rocket 4.4 19:01:57 46° ENE 19:01:57 46° ENE 19:06:13 10° NNE
Cosmos 2369 Rocket 3.3 19:10:02 13° N 19:14:52 43° ENE 19:20:15 10° SE
Cosmos 1603 4.0 19:18:14 59° N 19:18:14 59° N 19:22:50 10° NNE
Cosmos 1943 3.2 19:19:17 78° ESE 19:19:17 78° ESE 19:24:55 10° NNE
ALOS 4.4 19:19:58 10° NE 19:23:50 25° E 19:27:40 10° SSE
Cosmos 1190 Rocket 4.0 19:27:21 74° SSE 19:27:43 80° ESE 19:33:02 10° NNE
Lacrosse 5 2.3 19:27:16 54° NNE 19:27:54 58° NE 19:32:54 10° SE
GEOS 3 Rocket 3.7 19:30:01 10° NE 19:35:22 79° ESE 19:36:56 48° SSW
Cosmos 2221 4.2 19:42:32 22° N 19:42:32 22° N 19:44:07 10° N
Meteor PRIRODA 4.4 19:39:36 10° NNE 19:43:12 51° E 19:44:34 32° SSE
Cosmos 676 Rocket 4.3 19:40:35 10° S 19:45:50 68° ESE 19:51:08 10° NNE
CZ-2C R/B 3.5 19:44:01 10° N 19:47:06 32° NNW 19:47:06 32° NNW
COSMO-SKYMED 1 4.1 19:46:13 10° SE 19:50:11 36° ENE 19:54:11 10° N
Cosmos 1869 3.5 19:51:15 59° N 19:51:15 59° N 19:54:32 10° N
CZ-4B R/B 3.8 19:49:26 10° N 19:51:28 31° N 19:51:28 31° N
Cosmos 1605 Rocket 4.2 19:48:24 10° NNW 19:54:10 43° W 19:59:53 10° SSW
Meteor 2-3 Rocket 3.8 19:51:42 10° NNW 19:57:21 57° W 20:03:00 10° S
Atlas Centaur 2 3.8 19:57:18 20° SW 20:02:43 46° SSE 20:10:43 10° E
MOS 1-B 4.4 20:14:05 10° NNE 20:19:55 82° ESE 20:25:44 10° SSW
Cosmos 1943 Rocket 2.6 20:17:11 22° NW 20:20:02 36° WSW 20:25:01 10° S
ISS -3.1 20:21:46 17° SSW 20:24:09 53° SE 20:27:28 10° ENE
Aureole 2 Rocket 2.8 20:26:49 35° W 20:26:55 35° WSW 20:29:57 10° S
Cosmos 2173 Rocket 3.9 20:21:14 10° NNW 20:27:25 68° W 20:33:30 10° S
H-2A R/B 3.6 20:24:50 10° NNW 20:28:34 27° WNW 20:29:48 23° W
USA 267 3.8 20:26:12 10° S 20:32:07 36° SW 20:36:56 15° WNW
Cosmos 1484 Rocket 3.7 20:30:38 10° NNW 20:34:03 28° WNW 20:37:09 12° SW
Sich 1 2.9 20:30:31 10° N 20:34:50 87° W 20:39:10 10° S
Cosmos 1140 Rocket 4.4 20:34:10 17° WSW 20:36:56 27° WNW 20:41:22 10° N
Cosmos 1862 3.2 20:33:48 10° N 20:37:46 89° NW 20:41:45 10° S
SKYMED 2 3.6 20:33:55 10° S 20:38:10 57° W 20:42:27 10° NNW
Cosmos 1805 Rocket 3.6 20:34:47 10° NNW 20:39:00 52° W 20:43:12 10° S
NOSS 3-3 (A) 3.9 20:34:42 10° SW 20:40:20 57° NW 20:46:36 10° NNE
NOSS 3-3 (C) 3.9 20:34:46 10° SW 20:40:26 58° NW 20:46:43 10° NNE
DELTA 2 R/B (1) 3.8 20:38:42 18° W 20:42:48 58° N 20:48:18 10° ENE
FENGYUN 3A 3.8 20:38:08 10° N 20:43:22 49° WNW 20:48:33 10° SW
Cosmos 2100 Rocket 4.3 20:41:26 10° NNW 20:47:09 41° W 20:52:50 10° SSW
Cosmos 1238 Rocket 3.5 20:43:19 10° NNW 20:48:47 56° W 20:53:17 10° SSW
Cosmos 1850 Rocket 4.0 20:44:26 10° SSW 20:49:45 82° WNW 20:55:04 10° NNE
Cosmos 1151 Rocket 3.0 20:47:40 10° S 20:51:58 88° E 20:56:19 10° N
Cosmos 1459 Rocket 4.4 20:47:12 10° NNW 20:52:57 41° W 20:58:45 10° SSW
Helios 1A Rocket 3.4 20:49:35 10° NNE 20:53:42 68° ESE 20:57:46 10° S
Cosmos 1346 Rocket 4.4 20:51:41 10° N 20:55:20 38° ENE 20:58:58 10° SSE
ADEOS Rocket 3.4 20:50:41 10° SSE 20:56:48 75° ENE 21:03:41 10° N
Cosmos 1656 Rocket 3.8 20:51:49 10° NNW 20:57:21 54° WSW 21:02:51 10° S
Cosmos 2369 Rocket 3.3 20:54:14 10° NW 20:58:31 22° W 21:02:47 10° SSW
Cosmos 1633 3.9 20:58:15 10° NW 21:00:57 20° W 21:03:38 10° SW
ALOS 3.2 20:57:15 10° NNW 21:01:08 26° WNW 21:05:00 10° SW
Aurora 2 Rocket 4.4 20:59:48 10° WSW 21:03:38 20° SSW 21:06:43 10° SSE
Cosmos 1328 Rocket 3.6 21:00:37 10° SSW 21:04:59 62° W 21:09:25 10° N
Cosmos 482 Debris 2.9 21:04:01 10° NW 21:05:46 56° NE 21:07:47 10° SE
Cosmos 1606 2.7 21:02:36 10° S 21:06:25 90° NNE 21:10:12 10° N
USA 116 3.6 21:03:31 10° S 21:06:33 40° W 21:09:31 10° NNW
Cosmos 2123 Rocket 4.3 21:00:59 10° SSW 21:06:56 44° W 21:12:55 10° N
Okean O Rocket 1.8 21:05:05 10° N 21:09:18 49° WNW 21:13:27 10° SSW
Cosmos 921 Rocket 4.4 21:06:47 10° NW 21:09:41 18° W 21:12:33 10° SW
Cosmos 1725 Rocket 4.1 21:03:38 10° NNW 21:09:46 57° W 21:15:54 10° SSW
Cosmos 2061 Rocket 4.3 21:04:06 10° NNW 21:09:55 42° W 21:15:40 10° SSW
GPS 2-05 Rocket1 1.7 21:07:49 10° W 21:10:08 86° NNW 21:12:28 10° E
Lacrosse 5 3.4 21:07:04 10° WNW 21:10:26 18° WSW 21:13:46 10° SSW
Cosmos 1933 3.3 21:06:22 10° S 21:10:27 81° W 21:14:32 10° N
ERBS 3.2 21:07:56 10° SSW 21:11:13 52° SE 21:14:31 10° NE
BREEZE M DEB (TANK) 4.2 21:05:51 10° WNW 21:11:15 21° WSW 21:13:55 10° SSW
ATLAS 2AS CENTAUR R/B 4.3 21:04:53 10° NNW 21:11:36 35° NE 21:17:49 10° ESE
Cosmos 1741 Rocket 4.3 21:11:48 10° SW 21:16:49 47° WNW 21:21:54 10° N
